Showing default

ORBCOMM FM 117, 41188

Orbit data source: Space-Track

ORBCOMM FM 117, 41188 is a payload satellite owned by Orbcomm (US) in LEO that was launched on Tue, 22 Dec 2015 UTC via an FALCON 9 launch vehicle from the Air Force Eastern Test Range (AFETR). Payloads include a variety of satellites, spacecraft, and rockets equipped with specific instruments for various scientific and technological missions. These include communications satellites like Starlink; space stations such as the ISS; scientific satellites like the Hubble; Earth observation satellites from companies like Planet Labs, Umbra, and HawkEye 360; GPS; miniature CubeSats for education and research; and military/defense satellites.

Loading next visibility...
ORBCOMM FM 117 details
Identifier
41188, 2015-081K
Orbit
LEO
Last TLE update15 hours ago
Origin
Flag of USOrbcomm (US / ORB)
ManufacturerSNC Louisville
MissionOperational Commercial Communications
Bus & MotorSN-100A, Unknown motor
Mass172 kg wet, 158 kg dry
Launch date (UTC)
2015-12-22 (9 years ago)
Launch vehicle
FALCON 9
Launch site
Air Force Eastern Test Range (AFETR)
Object type
Payload
Rocket body
Debris
Shape & HBRBox + 1 Pan + 1 Ant, 13 m
Radar Cross Section2.222 m², Medium (>0.1 m² and < 1m²)

Expand to show TLE details & history

TLE from 15 hours ago
0 ORBCOMM FM 117
1 41188U 15081K   24360.89009589  .00001324  00000-0  32454-3 0  9991
2 41188  46.9993 203.8886 0003240 234.5592 125.4991 14.57634743481556
Epoch: 2024-12-25T21:21Z
Definitive object data (Epoch: 2024-12-25T21:21:44.284Z)
Latitude-0.00004°
Longitude148.57669°
Altitude702.369 km
Speed7.506 km/s
True Right ascension13h 35m 33s
True Declination0° 00' 00"
Sunlit
Object was in daylight at TLE epoch
Visualization TLE readout
Latitude32.41266°
Longitude-178.29786°
Altitude704.52 km
Speed7.507 km/s
Apparent Right ascension19h 07m 43s
Apparent Declination-3° 00' 31"
Sunlit
Object is in daylight
Visualization observer readout
Local Sidereal Time11:44:25
Azimuth78.64° E
Elevation-17.815°
Doppler factor1
Orbital elements
Apogee altitude704.35 km
Perigee altitude699.762 km
Semi-major axis7,080.193 km
Eccentricity0.000324
Inclination46.9993°
RAAN203.8886°
Arg. of periapsis234.5592°
True anomaly125.52932°
Mean anomaly125.4991°
Eccentric anomaly125.51421°
Mean motion3.64314 °/min
BSTAR0.00032454
Orbital period98.82 mins
Loading maneuver chart data...
Loading historical data...
Loading historical data...
Loading historical data...
Loading historical data...
Loading historical data...
Loading historical data...
Loading historical data...

ORBCOMM FM 117 Visibility forecast

Observer location: undefined°, undefined

Span
Click to sort rows by Start time (UTC) header in descending order
Start Az.
Max El. time (UTC)
Max El. Az.
Max El.
End time (UTC)
End Az.
6 mins2024-12-26 15:36:55.561Z177.809° S2024-12-26 15:39:55.561Z134.831° SE20.387°2024-12-26 15:42:55.561Z92.35° ESE
8 mins2024-12-26 17:19:55.561Z241.407° WSW2024-12-26 17:22:55.561Z261.092° W44.964°2024-12-26 17:27:55.561Z61.928° ENE
7 mins2024-12-26 19:03:55.561Z291.097° WNW2024-12-26 19:06:55.561Z349.472° N32.59°2024-12-26 19:10:55.561Z56.668° ENE
8 mins2024-12-26 20:47:55.561Z307.953° NW2024-12-26 20:50:55.561Z359.595° N32.976°2024-12-26 20:55:55.561Z81.466° E
8 mins2024-12-26 22:31:55.561Z296.261° NW2024-12-26 22:34:55.561Z264.453° W44.473°2024-12-26 22:39:55.561Z122.854° SE
5 mins2024-12-27 00:15:55.561Z258.603° W2024-12-27 00:17:55.561Z230.44° WSW18.115°2024-12-27 00:20:55.561Z188.362° SSW
|